TEVEL2-1

Last updated on Mon Sep 15 2025 00:03:10 GMT+0000 (Coordinated Universal Time)

1 63217U 25052H 25256.98008571 .00011137 00000+0 48321-3 0 9994 2 63217 97.4146 149.5660 0004937 50.0032 310.1637 15.22499626 27901
UTC large
Height (km)
Speed (km/s)
/
Latitude / Longitude
Inclination (degrees)
Orbital Period (minutes)
Azimuth
Elevation
Range (km)
Doppler Factor

Next 0 passes for location: London (51.5072 / 0.1276)

Sorry there are no passes over London.